{"data":{"norad_id":57151,"epoch":"2026-09-20T08:29:44.384352Z","epoch_age_seconds":133464,"freshness":"FRESH","line1":"1 57151U 23090BC  26263.35398593  .00000535  00000+0  28986-4 0  9996","line2":"2 57151  43.0022 244.0720 0001457 265.3465  94.7220 15.27577018180319","mean_motion":15.27577018,"eccentricity":0.0001457,"inclination_deg":43.0022,"raan_deg":244.072,"arg_perigee_deg":265.3465,"mean_anomaly_deg":94.722,"bstar":2.8986e-5,"rev_number":18031,"period_min":94.266932732815,"perigee_km":482.05834911977,"apogee_km":484.05770135012,"semimajor_km":6861.1950252349,"source":"CELESTRAK","updated_at":"2026-09-21T09:00:33.582452Z"}}